Tracking 18785 objects as of 26-July-2017
HD Live streaming from Space Station
objects crossing your sky now
MAYAK may become the brightest orbital object in the night sky!
Where is MAYAK now?
How to spot MAYAK

CZ-2D DEB

Track CZ-2D DEB now!
10-day predictions


NORAD ID: 28742
Int'l Code: 2005-024F
Perigee: 517.8 km
Apogee: 682.0 km
Inclination: 97.7 °
Period: 96.5 minutes
Semi major axis: 6970 km
RCS: 0.0146 m2 (small)
Launch date: July 5, 2005
Source: People's Republic of China (PRC)
Launch site: Jiuquan Satellite Launch Center, China (JSC)

Note: This is SATELLITE DEBRIS
Your satellite tracking list
Your tracking list is empty





NASA's NSSDC Master Catalog

Two Line Element Set (TLE):
1 28742U 05024F   17207.23473858 +.00001345 +00000-0 +12257-3 0  9994
2 28742 097.6847 005.3810 0117826 089.2458 272.2260 14.91655672642508
Source of the keplerian elements: AFSPC